Miles City, MT

8:33 AM MDT on April 26, 2017 (GMT -0600)
Wiley

Weather History for KMLS - August, 2014

Change the Weather History Date:

Sunday, August 10, 2014

  Actual Average Record
Temperature  
Mean Temperature 71 °F 74 °F  
Max Temperature 85 °F 89 °F 104 °F (1969)
Min Temperature 56 °F 60 °F 46 °F (1939)
Degree Days  
Heating Degree Days 0 0  
Month to date heating degree days 0 0  
Since 1 June heating degree days 95 101  
Since 1 July heating degree days 1 12  
Cooling Degree Days 6 10  
Month to date cooling degree days 106 104  
Year to date cooling degree days 461 519  
Since 1 June cooling degree days 427 499  
Growing Degree Days 20 (Base 50)    
Moisture  
Dew Point 49 °F    
Average Humidity 55    
Maximum Humidity 83    
Minimum Humidity 26    
Precipitation  
Precipitation 0.00 in 0.03 in 0.64 in (1947)
Month to date precipitation 0.08 0.36  
Year to date precipitation 9.85 9.21  
Sea Level Pressure  
Sea Level Pressure 30.17 in    
Wind  
Wind Speed 9 mph (East)    
Max Wind Speed 17 mph    
Max Gust Speed 20 mph    
Visibility 10 miles    
Events      
T = Trace of Precipitation, MM = Missing Value Source: NWS Daily Summary

Daily Weather History Graph

Daily Weather History Graph

Search for Another Location

Airport or City:

Trip Planner

Search our weather history database for the weather conditions in past years. The results will help you decide how hot, cold, wet, or windy it might be!

Date:

Astronomy

Aug. 10, 2014 Rise Set
Actual Time 5:55 AM MDT 8:21 PM MDT
Civil Twilight 5:22 AM MDT 8:54 PM MDT
Nautical Twilight 4:40 AM MDT 9:36 PM MDT
Astronomical Twilight 3:52 AM MDT 10:23 PM MDT
Moon 8:04 PM MDT (8/10) 5:54 AM MDT (8/10)
Length of Visible Light 15h 32m
Length of Day
14h 25m
Full, 100% of the Moon is Illuminated
Aug 10
Full
Aug 10
Full
Aug 17
Last Quarter
Aug 25
New
Sep 2
First Quarter

Hourly Weather History & Observations

Time (MDT) Temp. Dew Point Humidity Pressure Visibility Wind Dir Wind Speed Gust Speed Precip Events Conditions
12:53 AM 64.0 °F 51.1 °F 63% 30.16 in 10.0 mi NNE 8.1 mph - N/A   Clear
1:53 AM 61.0 °F 51.1 °F 70% 30.17 in 10.0 mi NE 6.9 mph - N/A   Clear
3:53 AM 59.0 °F 51.1 °F 75% 30.19 in 10.0 mi ENE 5.8 mph - N/A   Clear
4:53 AM 57.9 °F 51.1 °F 78% 30.20 in 10.0 mi NE 5.8 mph - N/A   Clear
6:53 AM 60.1 °F 54.0 °F 80% 30.22 in 10.0 mi ENE 4.6 mph - N/A   Clear
8:53 AM 66.9 °F 55.9 °F 68% 30.23 in 10.0 mi SSE 6.9 mph - N/A   Clear
9:53 AM 72.0 °F 51.1 °F 48% 30.22 in 10.0 mi ESE 8.1 mph - N/A   Clear
10:53 AM 73.9 °F 48.9 °F 41% 30.22 in 10.0 mi SE 6.9 mph - N/A   Clear
11:53 AM 78.1 °F 48.9 °F 36% 30.20 in 10.0 mi ESE 9.2 mph - N/A   Clear
12:53 PM 80.1 °F 50.0 °F 35% 30.19 in 10.0 mi ENE 8.1 mph - N/A   Clear
1:53 PM 82.0 °F 50.0 °F 33% 30.17 in 10.0 mi North - - N/A   Clear
2:53 PM 82.9 °F 46.9 °F 28% 30.16 in 10.0 mi Variable 3.5 mph - N/A   Clear
3:53 PM 84.0 °F 46.9 °F 27% 30.14 in 10.0 mi North - - N/A   Clear
4:53 PM 82.9 °F 45.0 °F 26% 30.14 in 10.0 mi NE 11.5 mph - N/A   Clear
6:53 PM 80.1 °F 44.1 °F 28% 30.13 in 10.0 mi ENE 13.8 mph - N/A   Clear
7:53 PM 78.1 °F 45.0 °F 31% 30.13 in 10.0 mi East 12.7 mph - N/A   Clear
8:53 PM 75.0 °F 44.1 °F 33% 30.15 in 10.0 mi East 8.1 mph - N/A   Clear
9:53 PM 73.0 °F 46.0 °F 38% 30.15 in 10.0 mi East 10.4 mph - N/A   Scattered Clouds
10:53 PM 73.0 °F 46.0 °F 38% 30.16 in 10.0 mi ESE 10.4 mph - N/A   Mostly Cloudy
11:53 PM 72.0 °F 46.0 °F 40% 30.17 in 10.0 mi SE 11.5 mph - N/A   Scattered Clouds